THOR ABLESTAR R/B, 47

Orbit data source: Space-Track

THOR ABLESTAR R/B, 47 is space debris in LEO originally from a launch on Wed, 22 Jun 1960 UTC launched from the Air Force Eastern Test Range (AFETR). Debris objects in space refer to the collection of defunct objects orbiting the Earth. Examples of debris include non-operational satellites, rocket bodies, and fragments generated from explosions, collisions, or faulty payload assembly.

Loading next visibility...
Identifier
47, 1960-007C
Orbit
LEO
Country
Flag of USUS
Related business
Manufacturer
Aerojet
Mission
Spacecraft
Bus & Motor
ABLESTAR, Unknown motor
Mass
~600 kg wet, 600 kg dry
Launch date (UTC)
1960-06-22 (65 years ago)
Launch vehicle
Unknown
Launch site
Air Force Eastern Test Range (AFETR)
Object type
Payload
Rocket body
Debris
Shape & HBR
Unknown
Radar Cross Section
Large (>1 m²)

Expand to show TLE details & history
Last TLE update: 12 hours ago

TLE from 12 hours ago
0 THOR ABLESTAR R/B
1 00047U 60007C   25298.77484643  .00001118  00000-0  25828-3 0  9992
2 00047  66.6644 316.4868 0225438 308.8145  49.3019 14.44913441416938
Epoch: 2025-10-25T18:35Z
TLE epoch observation values (Epoch: 2025-10-25T18:35:46.731Z)
Latitude
-0.00001°
Longitude
3.14152°
Altitude
641.875 km
Speed
7.592 km/s
True Right ascension
21h 05m 56s
True Declination
0° 00' 00"
Sunlit
Object was in daylight at epoch
Visualization orbit readout
Latitude
Unknown
Longitude
Unknown
Altitude
Unknown
Speed
Unknown
Apparent Right ascension
Unknown
Apparent Declination
Unknown
Sunlit
N/A
Visualization observer readout
Local Sidereal Time
02:20:49
Azimuth
Unknown
Elevation
Unknown
Doppler factor
Unknown
Orbital elements
Apogee altitude
901.162 km
Perigee altitude
580.192 km
Semi-major axis
7,118.814 km
Eccentricity
0.02254
Inclination
66.6644°
RAAN
316.4868°
Arg. of periapsis
308.8145°
True anomaly
51.2967°
Mean anomaly
49.3019°
Eccentric anomaly
50.29564°
Mean motion
3.61353 °/min
Orbital period
99.63 mins
BSTAR
0.00025828
Loading maneuver chart data...
Computing Atmospheric mass density...
Loading historical data...
Loading historical data...
Loading historical data...
Loading historical data...
Loading historical data...
Loading historical data...
Loading historical data...

Documentation

Showing up to 5 results
|